Погода в Киттиля

Финляндия     67°39′22″N   24°54′32″E
темп.,
°C
ветер,
м/с
пор.,
м/с
влажн.,
%
обл.,
%
осадки,
мм/ч
давл.,
гПа
погр.,
м
11 мая, вт
вт1100:00+1ююв11100100 0.4 101357
03:00+1юв01100100 0.6 101430
06:00+1вюв13100100 0.1 1014103
09:00+2юв16100100 0.6 1013306
12:00+2вюв31098100 4.4 1010448
15:00+3ю27100100 4.6 1010451
18:00+3юз17100100 0.0 1011408
21:00+3з2799100 0.0 1015382
12 мая, ср
ср1200:00+1зсз12100100 0.0 101851
03:00+1сз1199100 0.0 102036
06:00+1с1497100 0.0 1022179
09:00+3св1293100 0.0 1023287
12:00+5в1288100 0.1 1023518
15:00+6вюв2388100 0.1 1022541
18:00+4всв12100100 1.1 102159
21:00+3св2699100 2.7 1019183
13 мая, чт
чт1300:00+2вюв11100100 0.1 101819
03:00+2ю11100100 0.1 101641
06:00+4ююв26100100 0.0 1015181
09:00+6ю21198100 0.3 1014429
12:00+6ююз2799100 1.8 1014285
15:00+6юз13100100 2.4 1015170
18:00+7зсз1294100 0.2 1016384
21:00+5с2399100 0.4 101791
14 мая, пт
пт1400:00+3с2398100 0.7 101773
03:00+3с2499100 1.8 1017138
06:00+3ссв2599100 1.1 1016184
09:00+5ссв2395100 1.1 1016229
12:00+8ссв2287100 0.0 1015461
15:00+10с228799 0.0 1013504
18:00+9ссв259299 0.0 1012276
21:00+9с259491 0.0 1011219
15 мая, сб
сб1500:00+7с3698100 0.6 1011222
03:00+6с3698100 2.3 1011228
06:00+5с3796100 0.3 1010313
09:00+4с3696100 0.6 1011325
12:00+5ссв3591100 0.3 1012415
15:00+12св227895 0.0 1010554
18:00
21:00+4св3894100 0.0 1012413